[[{"header":{"parameterUnit":"m.s-1","parameterCategory":1,"la1":30.2991,"la2":30.254,"lo1":-89.0895,"lo2":-89.0444,"dy":0.0017,"dx":0.0017,"nx":28,"ny":28,"refTime":"2024-02-06T09:00:00:Z","depth":0,"parameterNumber":2,"parameterNumberName":"U-component_of_WINDS"},"data":[0,0,0,0,0,0,0,0,0,0,0,0,0,0,0,0,0,0,0,0,0,0,0,0,0,0,0,0,0,0,0,0,0,0,0,0,0,0,0,0,0,0,0,0,0,0,0,0,0,0,0,0,0,0,0,0,0,0,1.4808,1.4807,0,1.4776,1.4775,1.4775,1.4715,1.4714,1.4713,1.4712,1.4679,1.4679,1.4679,0,0,0,0,0,0,0,0,0,0,0,0,0,1.4818,1.4818,1.4808,1.4807,1.4807,1.4776,1.4775,1.4775,1.4715,1.4714,1.4713,1.4711,1.4679,1.4679,1.4679,0,0,0,0,0,0,0,0,0,0,0,0,0,1.4803,1.4818,1.4808,1.4774,1.477,1.4776,1.4775,1.4775,1.4716,1.4714,1.4712,1.4711,1.4679,1.4679,1.4679,1.4716,0,0,1.468,1.468,0,0,0,0,0,0,0,0,1.4804,1.4802,1.4779,1.4776,1.4772,1.4748,1.4767,1.4755,1.4716,1.4736,1.4712,1.471,1.4703,1.4701,1.4699,1.4714,1.4713,1.468,1.468,1.4681,1.4681,0,0,0,0,0,0,0,1.4805,1.4803,1.4795,1.4779,1.4775,1.476,1.4756,1.4764,1.473,1.4735,1.473,1.4727,1.4701,1.4699,1.4698,1.4712,1.468,1.468,1.4681,1.4681,1.4757,1.4758,0,0,0,0,0,0,1.4811,1.4805,1.4796,1.4794,1.4784,1.4761,1.4757,1.4757,1.473,1.4724,1.4729,1.4724,1.4699,1.4698,1.4696,1.4738,1.4681,1.4681,1.4681,1.4755,1.4757,1.4759,0,0,0,0,0,0,1.4811,1.4811,1.4797,1.4798,1.4795,1.4763,1.4764,1.4758,1.4755,1.4725,1.4719,1.4733,1.4698,1.4696,1.4712,1.4736,1.4681,1.4681,1.4753,1.4756,1.4758,1.4821,0,0,0,0,0,0,1.4812,1.4811,1.4824,1.4799,1.4796,1.4813,1.4766,1.4758,1.4756,1.475,1.4727,1.4722,1.4696,1.4712,1.4712,1.4735,1.4681,1.475,1.4754,1.4757,1.4816,1.4825,1.4833,0,0,0,0,0,1.4812,1.4843,1.4825,1.4825,1.4811,1.4814,1.4812,1.4782,1.4758,1.4772,1.4752,1.4723,1.4733,1.4714,1.4714,1.4737,1.4749,1.4753,1.4757,1.4813,1.4824,1.4833,0,0,0,0,0,0,1.4872,1.4839,1.4819,1.4842,1.4832,1.4804,1.482,1.4795,1.4791,1.4785,1.4748,1.4744,1.4764,1.4752,1.4731,1.4772,1.4736,1.4741,1.4779,1.4789,1.4797,1.48,1.4682,0,0,0,0,0,1.4888,1.4893,1.4864,1.4887,1.4883,1.4853,1.4853,1.4831,1.4818,1.4813,1.4795,1.4784,1.4785,1.4786,1.4785,1.4815,1.4809,1.4831,1.4839,1.4846,1.4851,1.4866,1.4876,1.4773,1.4773,1.4773,0,0,1.492,1.4903,1.4908,1.4899,1.4888,1.4894,1.4849,1.4858,1.4862,1.4814,1.4828,1.4815,1.48,1.4823,1.4832,1.4814,1.4878,1.4852,1.4858,1.4858,1.4872,1.4881,1.489,1.4776,1.4775,1.4775,0,0,1.4983,1.497,1.4989,1.4979,1.4964,1.4943,1.4948,1.4925,1.4914,1.4928,1.4892,1.4897,1.4899,1.4891,1.4887,1.4948,1.4921,1.4949,1.4992,1.5008,1.5016,1.5023,1.5046,1.5054,1.4953,1.4953,1.4953,0,1.5026,1.5034,1.5001,1.5013,1.501,1.4967,1.4986,1.4978,1.4963,1.4963,1.4942,1.4945,1.4932,1.4953,1.4968,1.4966,1.497,1.4951,1.5017,1.5024,1.503,1.5051,1.506,1.4957,1.4956,1.4956,1.4956,0,1.5087,1.5094,1.511,1.5097,1.5096,1.5111,1.5082,1.5085,1.5063,1.5046,1.506,1.5044,1.5039,1.5043,1.5021,1.5061,1.505,1.5024,1.4988,1.5044,1.5063,1.5071,1.4962,1.4961,1.4959,1.4959,0,0,1.5186,1.5156,1.5162,1.5156,1.5137,1.5141,1.5155,1.5151,1.5154,1.5146,1.5156,1.516,1.5136,1.5132,1.5109,1.5123,1.5174,1.5096,1.5095,1.5111,1.5218,1.5237,1.5247,1.5156,1.5158,1.5159,1.5219,0,1.5244,1.5265,1.5237,1.5265,1.5271,1.5232,1.5243,1.5233,1.5217,1.522,1.5203,1.5206,1.5174,1.5172,1.5183,1.5165,1.5195,1.5161,1.5166,1.5167,1.5171,1.5257,1.5278,1.5335,1.5226,1.5228,1.5228,0,1.5315,1.5311,1.5339,1.5319,1.532,1.5331,1.5326,1.5329,1.5317,1.5305,1.5301,1.5274,1.5287,1.5252,1.5269,1.5246,1.5247,1.5239,1.524,1.5239,1.5201,1.5259,1.5353,1.5362,1.524,1.5239,1.5238,0,1.5385,1.5386,1.5403,1.5399,1.5376,1.5385,1.5376,1.5362,1.5361,1.5357,1.5357,1.5354,1.5352,1.5351,1.5325,1.5301,1.5345,1.5308,1.5336,1.5337,1.5346,1.5346,1.5442,1.5347,1.5347,1.5347,1.5346,0,1.5453,1.5472,1.5434,1.5445,1.5465,1.5434,1.5455,1.5441,1.543,1.5438,1.5403,1.5412,1.5376,1.5381,1.5361,1.5379,1.5378,1.5369,1.5363,1.5372,1.5373,1.5372,1.5367,1.5349,1.5348,1.5348,1.5348,0,1.5534,1.551,1.5526,1.5503,1.5498,1.5514,1.5494,1.5504,1.5486,1.5497,1.5497,1.547,1.5474,1.5448,1.5446,1.5433,1.546,1.5448,1.5465,1.5461,1.549,1.5488,1.5589,1.5601,1.5498,1.5499,1.55,0,1.558,1.5594,1.5572,1.5575,1.5568,1.5573,1.5573,1.5542,1.5544,1.5532,1.5543,1.5544,1.5543,1.5551,1.5531,1.5531,1.5518,1.5553,1.5517,1.5526,1.5519,1.5519,1.552,1.5561,1.5562,1.5563,1.5564,0,1.5663,1.5651,1.5652,1.5649,1.565,1.5646,1.564,1.5645,1.5612,1.5615,1.5619,1.5618,1.5618,1.562,1.5615,1.5606,1.558,1.5575,1.5582,1.5591,1.56,1.5596,1.5485,1.5573,1.5572,1.5571,1.5571,1.5571,1.5728,1.5739,1.5726,1.5729,1.5721,1.5717,1.5725,1.5709,1.5711,1.5708,1.569,1.5698,1.5686,1.5678,1.5671,1.5677,1.566,1.5669,1.5672,1.5674,1.568,1.56,1.5676,1.5676,1.5675,1.5675,1.5675,0,1.581,1.58,1.5803,1.5796,1.5799,1.5774,1.5767,1.577,1.5777,1.5769,1.5769,1.5774,1.5776,1.5757,1.5757,1.5765,1.5753,1.5766,1.5765,1.5764,1.5695,1.569,1.5776,1.5776,1.5776,1.5776,1.5776,1.5776,1.5853,1.587,1.5856,1.587,1.586,1.5867,1.5865,1.5861,1.5855,1.5862,1.5863,1.5851,1.5839,1.5838,1.5839,1.5833,1.5835,1.5852,1.5842,1.5778,1.5768,1.5759,1.5754,1.5852,1.5852,1.5911,1.5911,1.5912]},{"header":{"parameterUnit":"m.s-1","parameterCategory":1,"la1":30.2991,"la2":30.254,"lo1":-89.0895,"lo2":-89.0444,"dy":0.0017,"dx":0.0017,"nx":28,"ny":28,"refTime":"2024-02-06T09:00:00:Z","depth":0,"parameterNumber":3,"parameterNumberName":"V-component_of_WINDS"},"data":[0,0,0,0,0,0,0,0,0,0,0,0,0,0,0,0,0,0,0,0,0,0,0,0,0,0,0,0,0,0,0,0,0,0,0,0,0,0,0,0,0,0,0,0,0,0,0,0,0,0,0,0,0,0,0,0,0,0,-4.6613,-4.6615,0,-4.6812,-4.6814,-4.6816,-4.6827,-4.6825,-4.6823,-4.682,-4.7022,-4.7029,-4.7037,0,0,0,0,0,0,0,0,0,0,0,0,0,-4.6241,-4.6247,-4.6612,-4.6615,-4.6617,-4.6812,-4.6814,-4.6817,-4.6828,-4.6825,-4.6822,-4.6819,-4.7019,-4.7028,-4.7037,0,0,0,0,0,0,0,0,0,0,0,0,0,-4.6417,-4.625,-4.6612,-4.6646,-4.6651,-4.6811,-4.6814,-4.6818,-4.6828,-4.6825,-4.6821,-4.6818,-4.7016,-4.7027,-4.7038,-4.7177,0,0,-4.7073,-4.7078,0,0,0,0,0,0,0,0,-4.6407,-4.6431,-4.6639,-4.6644,-4.665,-4.6791,-4.6757,-4.6938,-4.6829,-4.6761,-4.682,-4.6816,-4.6948,-4.6964,-4.7009,-4.7186,-4.7195,-4.7074,-4.7081,-4.7086,-4.7089,0,0,0,0,0,0,0,-4.6395,-4.6422,-4.6691,-4.6642,-4.6649,-4.6652,-4.6673,-4.6791,-4.6871,-4.6767,-4.6768,-4.6791,-4.695,-4.6998,-4.7014,-4.7198,-4.7074,-4.7084,-4.7091,-4.7095,-4.7502,-4.7506,0,0,0,0,0,0,-4.6376,-4.6412,-4.6685,-4.6697,-4.6518,-4.6661,-4.6685,-4.6749,-4.687,-4.6885,-4.6794,-4.6791,-4.6981,-4.7001,-4.7021,-4.7194,-4.7085,-4.7096,-4.7102,-4.7498,-4.7503,-4.7507,0,0,0,0,0,0,-4.6368,-4.6401,-4.6677,-4.6555,-4.6591,-4.6671,-4.6743,-4.6755,-4.6803,-4.6891,-4.6905,-4.6829,-4.6979,-4.7005,-4.7139,-4.7201,-4.7101,-4.7111,-4.7493,-4.7499,-4.7505,-4.7539,0,0,0,0,0,0,-4.6358,-4.6398,-4.6451,-4.6556,-4.6597,-4.6792,-4.6747,-4.6761,-4.6823,-4.6821,-4.6927,-4.6941,-4.6978,-4.7122,-4.715,-4.7215,-4.712,-4.7488,-4.7496,-4.7503,-4.7533,-4.7545,-4.7556,0,0,0,0,0,-4.6344,-4.6451,-4.6454,-4.6486,-4.6666,-4.6795,-4.6819,-4.686,-4.6828,-4.6883,-4.6939,-4.6938,-4.7189,-4.7136,-4.7168,-4.7236,-4.7484,-4.7494,-4.7502,-4.7527,-4.7543,-4.7556,0,0,0,0,0,0,-4.635,-4.6466,-4.6469,-4.6614,-4.6695,-4.6797,-4.6867,-4.6874,-4.6965,-4.696,-4.7006,-4.703,-4.7163,-4.7212,-4.7151,-4.7378,-4.7333,-4.7349,-4.7341,-4.7357,-4.7368,-4.7354,-4.7129,0,0,0,0,0,-4.6368,-4.6464,-4.656,-4.6678,-4.6718,-4.6786,-4.6844,-4.6869,-4.6954,-4.6988,-4.7054,-4.7137,-4.7235,-4.7298,-4.7392,-4.7539,-4.7564,-4.7602,-4.7614,-4.7623,-4.7637,-4.7721,-4.774,-4.7537,-4.7537,-4.7537,0,0,-4.6406,-4.6481,-4.6539,-4.6681,-4.6747,-4.6846,-4.6814,-4.692,-4.6994,-4.7004,-4.7136,-4.7187,-4.7282,-4.7424,-4.7489,-4.7469,-4.7699,-4.7635,-4.7642,-4.7651,-4.7733,-4.7752,-4.7769,-4.7543,-4.7542,-4.7541,0,0,-4.6527,-4.6592,-4.67,-4.6767,-4.6867,-4.6912,-4.6938,-4.704,-4.7075,-4.7208,-4.7218,-4.7306,-4.7473,-4.7542,-4.7598,-4.7748,-4.7751,-4.7777,-4.7839,-4.7921,-4.7937,-4.7951,-4.8007,-4.8026,-4.779,-4.779,-4.779,0,-4.6562,-4.6712,-4.6753,-4.686,-4.6923,-4.6938,-4.7048,-4.7111,-4.7237,-4.728,-4.7256,-4.7468,-4.7532,-4.7692,-4.7729,-4.7773,-4.7805,-4.7766,-4.7931,-4.7946,-4.796,-4.8014,-4.8035,-4.7793,-4.7792,-4.7792,-4.7792,0,-4.6751,-4.6855,-4.6929,-4.7053,-4.7124,-4.7231,-4.729,-4.7357,-4.7376,-4.7423,-4.756,-4.7638,-4.7751,-4.779,-4.7808,-4.7953,-4.7938,-4.7922,-4.7878,-4.7982,-4.8033,-4.8054,-4.7797,-4.7796,-4.7795,-4.7794,0,0,-4.6881,-4.7028,-4.7055,-4.7112,-4.7225,-4.7306,-4.7415,-4.7526,-4.7584,-4.767,-4.7764,-4.7906,-4.7893,-4.7957,-4.7983,-4.8055,-4.8172,-4.8031,-4.8034,-4.8056,-4.8339,-4.8352,-4.8375,-4.8174,-4.8178,-4.8181,-4.8332,0,-4.7016,-4.7211,-4.7253,-4.7421,-4.7519,-4.7536,-4.7631,-4.7711,-4.7758,-4.7848,-4.7899,-4.8001,-4.7974,-4.8014,-4.8085,-4.8142,-4.8229,-4.8132,-4.8262,-4.8266,-4.824,-4.8401,-4.8415,-4.8554,-4.8352,-4.8355,-4.8358,0,-4.72,-4.7293,-4.7472,-4.7575,-4.7618,-4.7702,-4.781,-4.7895,-4.7986,-4.8015,-4.8089,-4.8108,-4.8222,-4.8172,-4.8331,-4.8264,-4.8319,-4.8355,-4.8362,-4.8377,-4.832,-4.8424,-4.8599,-4.862,-4.8389,-4.8387,-4.8384,0,-4.7281,-4.745,-4.758,-4.7628,-4.7751,-4.7811,-4.7864,-4.7952,-4.8017,-4.811,-4.8154,-4.8258,-4.8315,-4.8395,-4.8443,-4.8401,-4.8599,-4.8552,-4.8628,-4.8627,-4.867,-4.8667,-4.8859,-4.8702,-4.8702,-4.8701,-4.8701,0,-4.7429,-4.7538,-4.7619,-4.7699,-4.7822,-4.7869,-4.799,-4.8043,-4.8122,-4.8213,-4.8232,-4.8317,-4.8374,-4.8467,-4.8504,-4.8632,-4.8656,-4.8684,-4.8693,-4.8684,-4.8681,-4.8723,-4.8715,-4.8707,-4.8706,-4.8704,-4.8704,0,-4.754,-4.7598,-4.7741,-4.7846,-4.7875,-4.7962,-4.8052,-4.8131,-4.8178,-4.8294,-4.8323,-4.8399,-4.8509,-4.8564,-4.8701,-4.8726,-4.8871,-4.8873,-4.8841,-4.8845,-4.892,-4.8913,-4.9147,-4.9181,-4.8999,-4.9,-4.9002,0,-4.7632,-4.7717,-4.7832,-4.7895,-4.7951,-4.8052,-4.8119,-4.8169,-4.8238,-4.835,-4.8416,-4.8528,-4.8621,-4.8797,-4.8863,-4.8969,-4.8975,-4.9049,-4.899,-4.898,-4.8979,-4.8974,-4.8984,-4.906,-4.9062,-4.9063,-4.9065,0,-4.779,-4.7815,-4.7912,-4.802,-4.81,-4.8187,-4.8273,-4.8323,-4.8387,-4.8464,-4.8579,-4.8651,-4.8792,-4.8904,-4.9015,-4.9069,-4.9079,-4.9083,-4.9106,-4.9099,-4.9078,-4.9093,-4.8873,-4.9077,-4.9076,-4.9075,-4.9074,-4.9074,-4.7897,-4.7974,-4.8068,-4.8176,-4.8246,-4.8326,-4.8407,-4.8466,-4.8562,-4.8683,-4.8706,-4.8828,-4.8919,-4.9069,-4.9128,-4.9224,-4.9208,-4.9241,-4.925,-4.9258,-4.9264,-4.9061,-4.9244,-4.9243,-4.9243,-4.9243,-4.9243,0,-4.8058,-4.812,-4.8219,-4.8339,-4.8425,-4.8427,-4.8522,-4.8594,-4.8701,-4.8786,-4.8878,-4.901,-4.9119,-4.9195,-4.9306,-4.9369,-4.9376,-4.9396,-4.9393,-4.9406,-4.927,-4.924,-4.9389,-4.9389,-4.9389,-4.9389,-4.9389,-4.9389,-4.8152,-4.8285,-4.8321,-4.8489,-4.855,-4.8671,-4.8726,-4.8801,-4.8869,-4.9017,-4.9109,-4.9158,-4.924,-4.9357,-4.9457,-4.9477,-4.9518,-4.9539,-4.9558,-4.9431,-4.9415,-4.9401,-4.9373,-4.9547,-4.9547,-4.9687,-4.9688,-4.9689]}]]